Vorticity
3 2 3 5 7 9 10 10 8 6 6 6 5 4 7 8 9 3 3 4 8 10 4 4 3 4 4 3 4 4 6 5 2 -3 6 0 15 -20 17 -2 6 2 4 4 7
10 9 9 7 5 3 4 7 9 10 8 7 7 5 5 5 8 10 6 4 4 9 9 5 3 2 5 4 4 3 3 4 5 3 6 0 17 -10 14 2 13 3 3 3 10
7 7 7 8 7 10 11 5 2 5 10 10 8 8 5 5 3 7 9 9 5 2 9 13 6 4 3 5 4 4 4 5 4 3 5 7 10 -15 5 0 -2 13 3 6 10
7 7 7 8 7 7 6 7 11 7 3 5 10 9 8 7 7 4 5 10 10 5 2 10 12 5 3 1 3 3 4 4 4 6 1 8 13 9 6 3 -4 11 3 4 13
7 6 6 7 6 7 2 6 6 10 9 5 3 7 10 9 7 7 6 4 8 10 6 1 7 11 4 3 2 5 3 1 5 6 4 10 14 4 -5 -2 12 4 4 4 8
8 9 9 8 5 4 5 6 10 8 7 5 5 3 4 10 9 8 9 7 3 9 11 7 0 6 11 2 2 3 5 1 3 5 7 7 -9 5 21 5 1 10 3 2 11
7 7 9 9 8 7 7 7 7 9 10 8 5 5 3 6 8 7 7 9 8 4 7 10 7 1 7 11 5 7 12 12 3 3 -1 -9 -4 6 -7 16 23 2 3 3 7
11 10 9 11 16 15 10 12 10 11 11 7 11 4 4 4 5 8 7 7 8 8 4 6 14 8 2 0 -3 5 18 11 15 10 3 5 4 3 3 7 15 -3 3 4 4
9 14 14 14 13 14 14 10 10 10 11 9 13 13 7 4 5 5 8 8 9 9 8 5 6 13 9 6 0 3 -1 -0 6 19 12 2 1 7 11 2 7 46 2 6 5
10 13 13 16 14 13 13 14 11 9 10 8 10 17 16 8 5 6 6 7 9 10 10 9 7 6 14 11 12 5 2 0 -0 4 14 12 3 2 7 10 8 6 2 7 4
11 13 16 12 12 14 14 13 13 11 7 6 6 6 10 12 12 3 8 5 6 9 11 11 10 10 8 12 8 13 9 4 2 1 2 14 9 6 6 18 20 6 1 5 4
13 13 9 11 12 14 14 14 12 20 6 13 7 7 7 8 11 12 7 8 6 9 8 12 15 11 8 4 7 8 10 10 10 3 -1 9 8 4 2 19 2 24 7 1 4
11 12 15 14 13 16 17 14 16 16 2 5 22 16 9 10 8 10 7 12 6 6 10 8 11 12 9 6 4 7 10 8 9 10 1 2 8 8 6 4 8 9 -5 9 3
11 15 16 16 19 19 17 21 24 39 23 14 18 19 17 13 10 9 11 6 10 5 9 8 5 6 12 12 6 4 8 10 7 12 6 2 5 7 6 14 7 17 13 6 -2
15 17 19 20 17 15 9 7 16 10 17 22 24 17 18 12 15 16 8 12 11 5 7 9 12 7 8 13 11 7 6 4 8 8 14 5 1 6 8 -5 4 9 7 10 17
15 21 12 13 19 16 13 6 15 12 14 20 23 21 16 16 14 14 12 9 13 7 6 8 8 10 8 5 9 11 7 4 3 6 9 16 4 3 6 9 3 -3 -3 7 9
14 16 13 19 19 19 15 11 15 13 14 24 23 20 13 15 10 14 13 11 9 10 9 2 8 6 9 9 4 5 9 6 6 6 6 11 18 3 0 6 8 3 7 1 3
20 9 16 18 16 11 12 16 15 18 22 21 20 13 9 11 16 13 13 12 14 12 12 8 8 8 7 7 10 7 6 10 6 9 10 8 12 17 5 -1 9 11 8 8 15
26 9 12 13 17 12 9 19 12 21 23 18 15 12 10 9 8 13 11 13 12 8 10 11 7 7 8 7 8 6 5 4 6 8 9 6 6 6 9 6 3 9 8 14 9
15 14 15 7 15 9 9 14 18 55 17 7 10 12 7 10 8 11 11 11 10 5 15 14 12 10 8 7 10 8 10 8 3 5 5 6 7 8 2 3 7 10 6 -3 7
11 14 18 12 11 12 10 8 7 34 11 1 9 16 17 15 11 11 14 11 13 16 10 13 14 11 11 8 8 9 8 8 7 6 3 8 2 7 10 4 5 6 7 8 6
13 12 -4 8 16 16 20 18 5 1 5 8 24 8 4 8 11 9 10 15 17 15 18 17 11 16 8 11 9 9 8 8 7 4 4 5 7 11 4 7 16 3 5 7 2
8 17 8 10 0 9 14 14 25 18 8 -3 2 5 19 8 10 9 8 9 5 9 11 11 20 14 10 12 8 9 9 9 7 7 5 4 2 5 8 9 10 9 8 4 2
11 11 26 5 11 7 4 7 12 12 11 18 32 10 10 11 4 4 13 10 10 6 5 11 8 10 13 11 8 12 8 9 9 9 7 4 5 4 4 6 7 10 11 6 7
16 19 11 27 11 13 12 11 4 10 11 9 14 19 20 14 16 16 16 14 14 15 10 13 11 7 4 8 9 9 5 9 9 9 7 8 5 5 5 6 6 7 9 7 10
11 13 23 22 15 11 12 9 15 11 8 8 8 7 9 12 18 29 23 14 12 12 11 3 9 11 13 16 9 10 11 11 10 11 10 8 8 7 6 5 4 4 6 6 10
13 14 6 7 13 15 13 14 15 14 13 11 11 10 7 7 5 4 8 14 20 16 17 18 21 19 17 17 18 19 13 11 11 10 14 11 8 9 8 7 7 7 9 6 5
Height
5853 5852 5851 5850 5850 5850 5850 5850 5851 5852 5853 5854 5855 5856 5857 5858 5860 5861 5865 5868 5870 5873 5877 5879 5881 5883 5885 5888 5890 5891 5893 5896 5897 5898 5898 5894 5894 5895 5897 5899 5901 5902 5904 5906 5906
5849 5848 5847 5847 5846 5846 5846 5846 5846 5847 5848 5850 5852 5853 5854 5856 5857 5859 5862 5864 5867 5870 5873 5875 5879 5882 5885 5886 5889 5891 5893 5894 5897 5898 5898 5897 5895 5895 5898 5900 5901 5903 5904 5907 5907
5844 5843 5842 5842 5842 5841 5842 5842 5842 5843 5844 5844 5846 5848 5850 5852 5854 5856 5858 5861 5864 5867 5870 5873 5876 5880 5883 5884 5887 5889 5892 5894 5896 5897 5898 5898 5899 5898 5899 5900 5901 5904 5905 5908 5908
5837 5836 5836 5836 5836 5836 5836 5837 5837 5838 5839 5840 5840 5842 5845 5847 5851 5852 5854 5858 5861 5864 5867 5869 5872 5876 5880 5882 5884 5887 5890 5893 5895 5897 5898 5898 5899 5901 5901 5902 5903 5905 5907 5908 5909
5830 5829 5828 5827 5827 5828 5829 5830 5830 5831 5833 5834 5835 5836 5838 5842 5844 5847 5850 5853 5857 5860 5863 5866 5868 5871 5875 5878 5881 5884 5888 5892 5894 5896 5897 5897 5899 5901 5902 5903 5903 5905 5906 5908 5910
5821 5820 5819 5819 5818 5818 5819 5821 5822 5823 5825 5826 5828 5830 5832 5835 5838 5841 5845 5849 5852 5855 5858 5861 5864 5867 5871 5874 5877 5882 5887 5889 5893 5895 5896 5896 5898 5900 5900 5901 5902 5904 5905 5907 5909
5812 5810 5810 5809 5809 5809 5809 5810 5812 5813 5816 5818 5820 5822 5825 5829 5831 5834 5838 5842 5846 5850 5853 5856 5860 5866 5869 5872 5874 5879 5884 5885 5889 5892 5894 5895 5896 5897 5900 5899 5900 5902 5904 5907 5910
5802 5801 5799 5799 5799 5799 5800 5800 5801 5804 5806 5808 5811 5814 5817 5821 5824 5828 5831 5835 5840 5844 5847 5853 5858 5862 5864 5871 5872 5876 5881 5883 5885 5889 5891 5893 5895 5896 5898 5898 5898 5902 5904 5906 5908
5794 5792 5790 5789 5789 5790 5790 5791 5792 5794 5796 5798 5802 5805 5809 5813 5816 5821 5825 5829 5834 5838 5843 5848 5853 5858 5862 5866 5869 5874 5879 5881 5883 5885 5888 5890 5892 5894 5897 5899 5900 5900 5903 5906 5907
5785 5783 5782 5780 5779 5780 5780 5781 5782 5784 5786 5788 5792 5796 5799 5804 5809 5814 5820 5824 5828 5832 5838 5842 5848 5853 5858 5862 5866 5870 5874 5878 5880 5883 5884 5885 5888 5891 5896 5899 5899 5901 5902 5904 5905
5776 5774 5774 5772 5771 5770 5771 5770 5773 5775 5776 5777 5782 5784 5789 5794 5799 5805 5811 5817 5823 5826 5831 5837 5844 5851 5855 5857 5858 5863 5868 5873 5877 5879 5882 5884 5887 5890 5895 5898 5898 5899 5901 5903 5904
5769 5766 5764 5762 5759 5759 5758 5759 5760 5762 5764 5766 5769 5772 5778 5783 5789 5795 5803 5810 5816 5821 5825 5832 5839 5842 5845 5850 5853 5857 5862 5866 5871 5875 5878 5881 5885 5889 5892 5896 5898 5897 5898 5900 5902
5762 5757 5754 5751 5748 5747 5746 5748 5749 5750 5753 5756 5758 5761 5768 5774 5779 5786 5794 5800 5807 5814 5820 5826 5833 5835 5840 5846 5850 5854 5857 5860 5865 5871 5874 5879 5883 5886 5890 5894 5897 5897 5898 5899 5901
5753 5749 5745 5741 5740 5738 5738 5739 5739 5739 5742 5745 5748 5751 5758 5764 5771 5777 5783 5791 5799 5806 5813 5817 5822 5829 5835 5841 5845 5849 5853 5855 5859 5867 5870 5876 5880 5885 5888 5892 5894 5895 5897 5898 5898
5745 5740 5736 5733 5731 5731 5731 5731 5731 5731 5732 5735 5738 5743 5749 5755 5764 5768 5775 5782 5790 5798 5808 5813 5817 5823 5830 5836 5839 5844 5848 5851 5853 5860 5867 5872 5878 5881 5886 5887 5888 5891 5893 5896 5897
5738 5733 5730 5728 5724 5724 5724 5724 5724 5725 5724 5727 5729 5735 5742 5747 5754 5760 5768 5774 5781 5790 5799 5805 5810 5816 5823 5828 5833 5837 5841 5846 5850 5855 5863 5867 5874 5878 5880 5883 5885 5887 5890 5893 5894
5733 5728 5726 5722 5720 5719 5719 5719 5719 5719 5721 5722 5725 5731 5736 5742 5747 5754 5762 5769 5777 5784 5792 5799 5805 5809 5815 5821 5826 5832 5836 5841 5846 5850 5858 5864 5869 5871 5875 5878 5882 5885 5888 5891 5893
5729 5725 5723 5719 5716 5715 5715 5716 5716 5717 5719 5720 5723 5727 5732 5736 5742 5750 5756 5764 5772 5778 5784 5791 5798 5803 5809 5815 5822 5826 5832 5837 5839 5845 5855 5859 5862 5865 5869 5874 5877 5881 5885 5888 5891
5727 5725 5722 5718 5715 5714 5715 5715 5715 5716 5718 5720 5722 5725 5729 5735 5742 5747 5753 5760 5766 5772 5778 5783 5789 5796 5802 5807 5815 5819 5824 5830 5834 5839 5848 5851 5857 5862 5864 5869 5874 5877 5881 5885 5888
5727 5725 5722 5719 5716 5715 5715 5715 5715 5715 5716 5720 5723 5726 5729 5734 5740 5745 5751 5756 5760 5765 5770 5776 5783 5788 5795 5801 5807 5812 5819 5824 5827 5832 5838 5842 5850 5853 5860 5864 5869 5874 5878 5881 5883
5730 5727 5724 5721 5719 5717 5716 5716 5716 5716 5717 5720 5723 5726 5729 5734 5739 5744 5748 5753 5756 5759 5763 5769 5776 5782 5787 5792 5799 5807 5810 5817 5822 5827 5830 5836 5842 5848 5854 5859 5865 5869 5874 5877 5880
5731 5729 5726 5723 5722 5719 5718 5718 5718 5718 5719 5722 5724 5725 5730 5734 5737 5741 5746 5749 5752 5755 5758 5762 5769 5775 5781 5787 5792 5799 5805 5810 5815 5820 5823 5828 5834 5841 5848 5853 5859 5863 5868 5872 5875
5731 5728 5726 5725 5723 5721 5719 5719 5720 5720 5721 5723 5725 5727 5729 5731 5736 5739 5742 5746 5749 5752 5756 5759 5764 5770 5776 5781 5786 5792 5799 5804 5810 5813 5817 5822 5826 5833 5841 5847 5852 5857 5862 5866 5870
5732 5729 5726 5725 5724 5722 5721 5720 5719 5719 5719 5721 5722 5725 5727 5730 5733 5737 5740 5743 5745 5748 5752 5756 5760 5765 5769 5774 5780 5786 5791 5797 5803 5807 5811 5814 5819 5825 5832 5839 5845 5849 5853 5858 5863
5732 5729 5727 5725 5724 5723 5722 5722 5721 5720 5720 5720 5720 5720 5723 5725 5728 5731 5734 5737 5740 5744 5747 5751 5754 5758 5761 5766 5770 5775 5780 5787 5793 5798 5802 5807 5811 5817 5823 5829 5836 5841 5845 5849 5853
5734 5731 5728 5727 5725 5724 5722 5721 5720 5720 5719 5719 5719 5719 5721 5723 5725 5726 5729 5732 5735 5739 5742 5746 5749 5753 5757 5761 5765 5769 5773 5777 5782 5788 5793 5797 5803 5808 5813 5819 5826 5832 5835 5839 5843
5737 5733 5732 5729 5727 5726 5723 5722 5720 5719 5718 5718 5718 5719 5719 5721 5722 5725 5728 5730 5733 5736 5739 5742 5745 5748 5751 5753 5757 5762 5766 5769 5774 5779 5784 5787 5792 5796 5802 5807 5812 5819 5825 5829 5832